Temperature
16 16 15 15 14 14 13 13 13 13 12 12 12 12 12 12 12 12 12 12 12 12 11 11 12 12 12 12 12 13 13 13 13 13 13 12 12 12 13 13 13 13 14
17 16 16 15 14 14 13 13 13 13 12 12 12 12 12 12 11 11 11 11 11 11 11 11 11 11 12 12 12 13 13 13 13 13 13 12 12 12 12 12 12 12 12
17 16 15 15 14 13 13 13 13 13 12 12 12 11 11 11 11 11 11 11 11 11 11 11 11 11 12 12 12 13 13 13 13 13 12 11 11 11 11 12 12 12 12
16 15 15 15 14 13 13 13 13 12 12 11 11 11 11 11 11 11 11 11 11 11 11 11 11 11 11 12 12 12 13 13 13 12 11 11 11 11 11 11 11 11 11
16 15 15 15 14 14 13 13 13 12 12 11 11 11 11 10 10 11 11 11 11 11 11 11 11 11 11 11 12 12 12 12 12 11 11 11 10 10 10 10 10 10 10
16 15 15 15 14 14 13 13 13 12 12 11 11 11 11 11 10 11 11 11 11 11 11 11 11 11 11 11 12 12 12 12 11 11 10 10 10 10 10 10 10 10 10
15 15 15 15 14 14 13 13 13 12 12 11 11 11 11 10 11 11 11 11 11 11 11 11 11 11 11 11 11 12 12 12 11 10 10 10 10 10 10 9 9 9 10
15 15 14 14 14 13 13 13 13 12 12 11 11 11 11 11 11 11 11 11 11 11 11 11 11 11 11 11 11 11 11 11 10 10 10 10 10 10 9 9 9 9 9
15 15 14 14 14 14 13 13 12 12 12 11 11 11 11 11 11 11 11 11 11 11 10 10 10 10 10 10 11 11 11 11 10 10 10 9 10 9 9 9 9 9 9
15 15 14 14 13 13 13 13 12 12 12 11 11 11 11 11 11 11 10 10 10 10 10 10 10 10 10 10 10 10 10 10 9 10 9 9 10 9 9 8 8 9 9
15 15 14 14 13 13 12 12 12 12 11 11 11 11 11 10 10 10 10 10 10 10 10 10 10 10 10 10 10 10 10 10 9 9 10 10 9 9 8 8 8 8 8
16 15 14 14 13 13 12 12 12 11 11 11 10 10 10 10 10 10 10 10 10 10 10 10 10 10 10 9 10 10 9 10 9 9 10 10 9 9 8 8 8 8 8
16 16 15 14 14 13 13 12 12 11 11 11 10 10 10 10 10 10 10 10 10 10 10 10 10 9 9 10 9 9 10 9 9 9 9 10 9 9 8 8 8 8 8
16 16 16 15 14 13 13 12 12 12 11 11 11 10 10 10 10 10 10 9 9 9 9 9 9 9 9 9 9 9 10 9 9 9 9 10 9 9 8 8 8 8 8
16 16 16 15 14 14 13 13 12 12 11 11 11 11 10 10 10 10 10 10 9 9 9 9 9 9 9 9 10 10 9 9 9 9 9 10 9 9 9 8 8 8 7
17 17 16 16 15 14 13 13 13 12 12 11 11 11 11 10 10 10 10 10 9 9 9 9 9 9 9 9 9 10 10 10 9 9 9 9 9 9 9 8 8 8 8
17 17 16 16 15 14 14 13 13 12 12 12 11 11 11 10 10 10 10 10 10 9 9 9 9 9 9 9 9 10 10 10 10 9 9 9 9 9 9 9 8 8 8
17 17 16 16 16 15 14 14 13 12 12 12 11 11 11 10 10 10 10 10 10 9 9 9 9 9 9 9 9 9 10 10 10 9 9 9 9 9 9 8 8 8 8
17 17 17 16 16 15 15 14 13 13 12 12 12 11 11 10 10 10 10 10 10 9 9 9 9 9 9 9 9 9 10 10 10 9 9 9 9 8 8 8 8 8 8
18 17 17 16 16 15 14 13 13 12 12 12 12 11 11 11 10 10 10 10 10 9 9 9 9 9 9 9 9 9 9 10 9 9 9 9 9 8 8 8 8 8 7
18 17 17 16 16 15 14 14 13 13 13 12 12 12 11 11 11 10 10 10 10 10 9 9 9 9 9 9 9 9 9 9 9 9 9 8 8 8 8 8 7 7 7
18 18 17 17 16 16 15 15 14 13 13 13 12 12 11 11 11 10 10 10 10 10 9 9 9 9 9 9 8 8 8 8 9 9 9 9 8 8 8 7 7 7 7
18 18 18 17 17 16 16 15 14 13 13 12 12 12 12 11 11 11 10 10 10 10 9 9 9 9 9 9 8 8 8 9 8 8 8 8 8 8 7 7 7 7 6
18 18 18 17 17 17 16 15 14 14 13 13 13 12 12 12 11 11 11 10 10 10 9 9 9 9 9 8 8 8 8 8 7 7 7 8 8 7 7 7 6 6 6
18 18 18 17 17 16 16 15 15 14 14 13 12 12 12 12 11 11 11 10 10 10 10 9 9 9 9 8 8 8 8 7 7 6 6 7 7 7 7 6 6 6 5
18 18 18 17 17 16 16 15 15 14 14 13 13 12 12 12 11 11 11 10 10 10 10 9 9 9 9 8 8 8 8 7 7 6 6 6 6 6 6 6 6 5 5
Wind_Speed
10 14 16 14 13 13 12 12 12 11 11 11 12 12 12 12 12 12 13 13 14 14 14 15 15 16 16 16 16 17 17 17 17 17 16 16 16 16 16 16 14 14 17
14 16 17 15 14 13 13 13 12 12 11 11 11 11 12 12 12 12 12 13 13 13 14 14 14 15 15 15 15 15 15 15 15 14 13 13 15 15 15 15 15 13 15
15 17 18 15 15 14 14 14 13 12 11 11 11 11 11 11 11 11 12 12 12 12 13 13 13 13 13 13 14 14 14 14 13 11 9 10 12 14 13 13 13 13 13
16 16 16 17 15 15 14 14 13 12 11 10 10 10 10 10 11 11 11 11 11 12 12 12 12 12 12 12 12 12 12 12 11 8 9 10 10 12 12 12 12 12 12
15 15 16 17 16 15 14 14 13 12 11 10 10 10 10 10 10 10 10 10 11 10 10 10 10 11 11 11 11 11 11 10 8 8 9 9 9 10 10 10 10 10 10
15 15 16 17 16 16 15 14 13 13 12 10 10 10 9 10 10 10 9 9 9 9 9 9 9 9 10 10 10 10 10 8 5 8 8 8 8 9 9 9 9 9 9
15 15 17 17 16 16 15 14 13 12 12 11 10 10 9 9 9 9 8 8 8 8 8 8 8 8 9 8 9 9 8 7 6 6 6 7 8 8 8 8 8 8 9
14 14 15 17 15 16 15 14 14 13 12 11 10 9 9 9 8 8 7 7 7 7 7 7 7 7 7 7 7 8 7 6 4 5 5 6 8 8 7 7 8 8 8
14 14 14 16 16 16 15 14 14 13 12 12 11 10 9 8 8 7 6 6 6 6 6 7 6 6 6 6 6 6 6 5 4 5 4 5 8 7 7 7 7 7 8
13 14 14 15 15 15 15 15 14 13 13 12 11 10 9 8 8 7 6 6 6 6 6 5 5 6 6 6 6 5 3 3 4 3 4 5 7 7 6 6 6 7 7
13 14 14 14 14 14 13 15 15 14 13 12 11 11 10 8 7 6 6 6 5 5 5 5 5 5 3 4 4 3 2 3 3 3 3 6 7 6 6 6 6 6 7
17 16 14 14 14 14 12 13 13 13 13 12 10 11 9 7 6 5 7 5 4 4 4 4 3 1 1 1 2 1 2 3 3 3 3 6 6 5 5 5 6 6 7
18 17 15 15 15 14 12 12 11 10 11 11 11 10 8 7 6 6 5 6 5 4 2 2 1 1 2 2 3 3 3 3 3 2 3 5 5 5 5 5 6 7 7
17 18 17 16 15 15 14 12 11 10 10 10 11 11 9 7 6 6 5 4 4 3 2 1 1 1 2 2 2 3 3 3 3 3 3 4 5 5 5 5 6 6 7
17 18 18 17 16 15 14 11 11 11 11 11 11 11 11 8 7 6 5 5 4 3 3 2 2 1 2 2 2 3 3 3 3 2 1 3 4 5 4 5 5 6 6
18 18 18 19 18 16 14 12 12 12 12 11 11 12 12 9 8 7 6 5 5 4 3 3 3 2 2 2 3 3 3 3 3 2 2 0 2 3 4 4 4 5 6
18 17 18 18 18 18 16 15 12 12 13 12 12 13 13 12 10 8 7 6 6 6 5 4 3 3 3 3 3 3 3 4 3 3 2 2 1 1 2 3 4 5 6
16 17 18 15 18 18 16 15 13 13 13 12 12 13 14 14 12 10 7 7 7 6 6 4 4 4 4 4 4 3 3 3 4 4 4 3 3 2 1 1 3 4 5
16 17 17 18 19 18 17 14 14 13 13 12 12 12 14 15 14 11 9 8 8 7 6 5 5 5 4 4 4 4 4 4 4 5 5 5 4 4 3 1 2 3 5
15 16 17 18 18 17 14 12 11 12 11 12 12 13 15 14 15 13 10 10 9 7 7 7 7 5 5 4 4 5 5 5 5 5 6 6 6 5 5 4 4 3 4
14 16 17 17 17 15 13 13 12 12 11 11 12 15 16 15 15 14 10 10 10 9 9 9 7 7 6 4 4 5 6 6 7 6 6 6 7 7 6 6 6 5 5
15 16 16 17 17 17 15 14 12 11 10 11 10 13 16 16 16 14 13 10 10 9 10 9 8 6 5 5 4 4 5 5 6 7 7 7 7 7 7 8 7 7 7
14 15 14 17 17 18 16 12 10 9 7 9 11 11 14 17 16 16 15 13 11 11 10 10 10 10 7 6 6 5 5 5 3 4 7 7 8 7 7 8 9 9 8
13 13 14 15 16 17 16 15 16 13 12 13 11 11 13 16 16 16 15 14 12 11 11 11 10 9 9 7 6 6 7 6 5 5 5 7 8 9 9 7 9 9 9
11 11 12 14 15 16 17 17 17 15 13 11 11 12 12 12 15 15 15 13 12 11 12 11 11 11 9 9 7 5 7 6 8 7 8 6 6 7 8 8 8 9 10
9 10 11 13 14 15 17 17 18 17 15 13 13 12 11 10 11 14 14 13 13 11 12 12 11 12 11 11 9 7 6 5 6 8 9 9 9 7 7 7 8 8 9
Wind_Direction
163 162 161 158 151 147 141 131 124 117 108 102 100 95 93 88 84 80 77 73 71 69 68 67 66 64 63 62 62 61 60 58 55 52 51 54 55 55 53 46 44 51 47
156 159 159 159 155 150 142 134 127 121 113 107 103 98 95 92 88 84 81 77 74 70 68 67 66 65 64 64 64 63 61 59 56 52 52 58 55 54 53 51 47 49 47
153 157 160 161 158 152 143 137 132 127 121 114 108 105 101 97 94 89 85 80 77 74 71 69 67 66 65 65 65 64 62 60 54 50 52 55 56 52 51 49 48 47 45
155 159 162 158 159 153 147 143 138 133 128 123 118 114 109 103 99 93 88 84 80 76 73 70 69 69 67 66 66 64 63 59 50 42 51 49 50 48 47 45 44 43 40
157 161 156 159 160 157 153 149 145 139 135 130 125 122 115 109 105 98 92 87 84 80 77 74 72 70 67 66 65 64 62 56 49 50 52 46 45 41 41 41 38 37 34
160 162 158 165 163 160 157 154 150 145 141 135 131 127 121 115 109 103 96 91 87 84 80 78 75 71 67 66 65 63 58 46 41 53 48 40 38 35 33 34 33 30 27
162 164 162 169 167 163 159 157 154 151 147 141 136 132 128 121 114 109 102 96 91 86 83 80 76 72 68 64 63 60 53 33 36 49 42 37 29 21 24 23 22 21 21
163 166 164 170 170 166 163 161 159 158 155 150 145 140 134 127 122 116 111 104 98 92 87 81 77 70 66 63 61 57 48 20 33 40 36 33 18 10 17 15 12 12 13
168 170 171 173 173 170 168 167 166 165 164 159 153 147 140 135 129 122 116 110 103 97 90 81 74 68 63 59 56 54 46 9 9 32 24 23 6 2 9 9 8 7 9
175 178 177 178 176 176 175 172 171 170 169 165 157 149 143 141 136 128 130 116 109 102 90 80 70 65 60 53 51 49 27 312 16 17 13 17 356 356 3 5 7 5 5
185 186 185 183 181 181 179 171 174 175 173 169 165 155 163 167 156 150 121 120 117 107 94 80 70 63 61 74 58 34 313 350 6 2 7 1 344 350 358 3 2 2 3
191 191 190 189 185 184 180 179 184 183 181 187 182 176 182 176 164 151 131 133 128 118 108 84 73 81 313 20 71 286 338 346 345 357 11 354 342 347 356 2 5 4 4
192 192 195 193 189 187 185 187 187 187 188 193 192 186 183 179 173 177 173 168 168 172 168 138 216 334 342 351 334 337 342 336 339 350 16 2 348 349 357 6 9 5 3
194 195 196 195 193 193 191 191 192 192 191 192 194 193 189 190 192 188 196 189 192 194 194 228 282 311 315 317 320 325 328 325 327 336 14 9 355 352 359 3 3 2 360
199 198 197 197 196 196 197 197 199 199 196 195 195 198 198 198 199 196 202 200 205 208 213 232 252 279 294 311 316 312 313 314 310 310 351 30 0 354 359 358 358 358 356
204 200 197 198 199 198 198 200 202 202 200 200 198 200 202 205 204 201 204 206 209 215 227 237 250 267 284 293 298 299 299 297 288 283 278 145 31 1 0 1 359 356 352
207 202 199 199 200 201 203 204 205 204 202 203 203 203 203 207 207 205 210 210 211 213 219 229 238 255 268 272 278 288 289 286 276 264 249 242 208 71 13 352 348 346 342
208 203 199 197 201 203 204 205 206 206 205 205 204 204 206 207 207 207 212 216 212 211 217 225 234 244 252 263 275 280 271 262 259 254 236 227 230 231 200 343 328 328 327
209 203 199 199 202 203 204 206 207 207 207 208 205 206 207 208 207 208 214 217 211 213 219 223 233 245 255 262 272 274 268 255 248 237 230 224 224 231 242 229 270 303 312
209 205 201 200 202 201 202 206 207 209 210 211 209 210 208 208 208 210 214 216 211 213 217 220 227 236 252 261 267 266 262 253 242 235 232 227 224 230 242 254 258 268 283
203 203 202 200 200 197 197 200 202 207 209 211 213 214 211 210 210 211 213 214 212 217 220 223 226 232 237 242 256 264 254 242 240 233 232 232 229 233 242 249 260 274 273
201 201 201 201 199 198 199 199 203 205 210 212 211 214 214 213 211 211 214 214 212 218 221 221 219 230 231 220 241 267 269 247 230 229 231 235 240 237 242 247 255 261 269
201 201 200 200 199 199 198 197 194 196 203 207 211 213 214 214 213 212 214 216 215 215 220 220 216 221 230 224 228 243 262 271 278 226 232 235 239 241 246 247 250 253 257
203 200 201 199 199 198 196 197 197 201 208 212 211 212 212 213 215 215 215 217 218 219 222 221 219 221 229 232 222 232 248 268 268 273 235 235 240 246 249 249 251 251 253
199 195 198 197 198 197 198 200 204 211 216 216 212 213 213 212 214 214 215 216 219 220 223 221 218 219 222 230 226 220 230 242 247 257 270 263 250 245 247 251 253 252 252
195 193 194 196 198 198 199 203 207 212 214 213 211 212 213 213 212 214 214 216 219 220 222 222 220 219 221 228 228 224 222 225 229 236 255 267 269 262 253 250 250 249 250
Height
1538 1539 1540 1542 1544 1545 1546 1546 1547 1547 1547 1547 1547 1547 1546 1546 1545 1545 1544 1544 1543 1543 1543 1542 1541 1541 1540 1539 1538 1538 1537 1537 1537 1536 1536 1535 1535 1534 1534 1534 1534 1533 1532
1538 1539 1540 1542 1544 1545 1546 1547 1547 1547 1547 1547 1547 1547 1547 1546 1546 1545 1545 1544 1544 1544 1543 1543 1542 1541 1541 1540 1539 1539 1538 1538 1538 1537 1537 1537 1536 1535 1534 1534 1534 1533 1533
1538 1539 1540 1542 1544 1545 1546 1547 1547 1548 1548 1548 1548 1548 1547 1547 1547 1546 1546 1545 1545 1544 1544 1543 1543 1542 1542 1541 1540 1540 1539 1539 1538 1538 1538 1538 1537 1536 1535 1535 1534 1533 1533
1538 1540 1541 1542 1544 1545 1546 1547 1547 1548 1548 1548 1548 1548 1548 1548 1547 1547 1547 1546 1546 1545 1545 1544 1544 1543 1543 1542 1541 1541 1540 1540 1539 1539 1539 1539 1538 1537 1536 1535 1535 1534 1533
1538 1540 1541 1542 1544 1545 1547 1547 1548 1548 1548 1549 1549 1549 1549 1548 1548 1548 1547 1547 1547 1546 1546 1545 1545 1544 1544 1543 1542 1542 1541 1541 1540 1540 1540 1539 1539 1537 1537 1536 1535 1534 1533
1538 1540 1541 1543 1544 1546 1547 1548 1548 1548 1549 1549 1549 1549 1549 1549 1549 1549 1548 1548 1548 1547 1547 1546 1546 1545 1545 1544 1543 1543 1542 1542 1541 1541 1540 1540 1539 1538 1537 1536 1535 1535 1534
1539 1541 1542 1543 1545 1546 1547 1548 1548 1549 1549 1549 1550 1550 1550 1550 1549 1549 1549 1549 1549 1548 1548 1547 1547 1546 1546 1545 1544 1543 1543 1542 1542 1541 1541 1540 1539 1538 1537 1536 1535 1535 1534
1539 1540 1542 1543 1544 1546 1547 1548 1548 1549 1549 1550 1550 1550 1550 1550 1550 1550 1550 1550 1549 1549 1549 1548 1548 1547 1546 1545 1545 1544 1543 1542 1542 1542 1541 1540 1539 1538 1537 1536 1535 1535 1534
1538 1540 1542 1543 1544 1545 1547 1548 1548 1549 1550 1550 1550 1551 1551 1551 1551 1550 1550 1550 1550 1550 1549 1549 1548 1548 1547 1546 1545 1544 1543 1543 1543 1542 1541 1540 1539 1538 1537 1536 1535 1534 1533
1537 1539 1541 1542 1544 1545 1546 1547 1548 1549 1550 1550 1551 1551 1551 1551 1551 1551 1551 1550 1550 1550 1550 1549 1548 1548 1547 1546 1545 1544 1544 1543 1543 1542 1541 1540 1539 1538 1537 1536 1535 1534 1533
1535 1537 1539 1541 1543 1544 1546 1546 1547 1548 1549 1550 1550 1551 1551 1552 1552 1552 1551 1551 1551 1550 1550 1549 1549 1548 1547 1546 1545 1544 1544 1544 1543 1542 1540 1539 1538 1538 1537 1536 1535 1533 1532
1532 1534 1536 1539 1540 1542 1544 1545 1547 1548 1548 1549 1550 1550 1551 1552 1552 1551 1551 1551 1550 1550 1550 1549 1549 1548 1547 1547 1546 1544 1544 1543 1542 1541 1540 1539 1538 1537 1536 1535 1534 1533 1532
1529 1531 1533 1536 1538 1540 1541 1543 1545 1546 1547 1548 1549 1550 1550 1551 1551 1551 1551 1550 1550 1550 1550 1549 1549 1548 1547 1546 1545 1545 1543 1543 1542 1541 1539 1538 1537 1536 1535 1534 1533 1532 1531
1526 1528 1530 1533 1535 1537 1539 1541 1542 1544 1545 1546 1547 1548 1549 1549 1550 1550 1550 1550 1550 1550 1549 1549 1548 1548 1547 1546 1545 1544 1543 1542 1541 1540 1538 1537 1536 1535 1534 1533 1532 1531 1529
1523 1525 1527 1529 1531 1534 1536 1538 1540 1541 1543 1544 1545 1546 1547 1548 1548 1549 1549 1549 1549 1549 1548 1548 1548 1547 1546 1545 1544 1543 1542 1541 1539 1538 1537 1535 1535 1534 1533 1532 1530 1529 1528
1518 1521 1523 1526 1528 1530 1533 1535 1537 1539 1540 1541 1542 1543 1544 1546 1546 1547 1547 1547 1548 1547 1547 1547 1547 1546 1545 1544 1543 1542 1540 1539 1538 1537 1535 1534 1533 1532 1531 1530 1529 1527 1526
1514 1517 1519 1522 1524 1527 1529 1532 1534 1535 1537 1538 1539 1541 1542 1543 1544 1544 1545 1545 1546 1546 1545 1545 1545 1544 1543 1542 1541 1540 1539 1538 1536 1535 1534 1533 1532 1530 1529 1528 1527 1525 1524
1509 1512 1514 1517 1520 1522 1525 1527 1530 1532 1533 1535 1536 1537 1539 1540 1541 1542 1542 1543 1543 1543 1543 1543 1543 1542 1542 1541 1540 1538 1537 1536 1534 1533 1532 1531 1530 1529 1527 1526 1524 1523 1521
1504 1507 1509 1512 1515 1518 1521 1523 1526 1528 1530 1531 1533 1534 1535 1536 1538 1539 1539 1540 1541 1541 1541 1541 1541 1540 1540 1539 1537 1536 1535 1533 1532 1531 1530 1529 1527 1526 1525 1523 1522 1520 1518
1499 1501 1504 1507 1510 1513 1516 1519 1521 1523 1525 1527 1528 1530 1531 1533 1534 1535 1536 1537 1538 1538 1538 1538 1538 1537 1537 1536 1535 1533 1532 1531 1529 1528 1527 1526 1525 1523 1522 1520 1519 1517 1515
1493 1496 1498 1501 1505 1508 1510 1512 1515 1517 1520 1522 1524 1525 1527 1529 1530 1531 1532 1533 1534 1534 1534 1535 1535 1534 1534 1533 1532 1530 1529 1527 1526 1525 1524 1523 1521 1520 1519 1517 1515 1514 1512
1487 1490 1493 1496 1499 1502 1504 1507 1510 1513 1515 1517 1519 1521 1522 1524 1526 1527 1528 1529 1530 1530 1531 1531 1531 1531 1530 1530 1529 1528 1527 1526 1522 1521 1520 1519 1518 1516 1515 1513 1511 1510 1508
1482 1485 1488 1491 1494 1497 1500 1503 1505 1508 1510 1512 1513 1515 1517 1519 1521 1522 1523 1524 1525 1526 1526 1526 1527 1527 1526 1526 1525 1526 1525 1522 1520 1517 1515 1514 1513 1512 1511 1509 1507 1505 1503
1477 1480 1483 1486 1488 1491 1494 1497 1499 1501 1503 1505 1508 1510 1512 1514 1515 1517 1518 1519 1520 1520 1521 1521 1522 1522 1522 1521 1521 1520 1520 1518 1517 1514 1512 1510 1509 1507 1506 1504 1502 1500 1498
1473 1475 1478 1481 1483 1486 1489 1491 1494 1496 1498 1501 1503 1505 1506 1508 1509 1511 1512 1513 1514 1515 1515 1516 1516 1516 1516 1516 1515 1515 1514 1513 1512 1511 1508 1506 1504 1502 1500 1499 1497 1495 1493
1468 1471 1473 1476 1478 1481 1483 1486 1488 1490 1493 1495 1497 1499 1501 1502 1503 1505 1506 1507 1508 1509 1510 1510 1510 1510 1510 1510 1510 1509 1508 1507 1506 1505 1503 1501 1499 1497 1495 1493 1491 1489 1487